Manhattan, KS

12:05 AM CDT on May 01, 2017 (GMT -0500)
Manhattan Regional

Weather History for KMHK - October, 2013

Change the Weather History Date:

Monday, October 14, 2013

  Actual Average Record
Temperature  
Mean Temperature 62 °F 56 °F  
Max Temperature 66 °F 69 °F 84 °F (1996)
Min Temperature 57 °F 43 °F 26 °F (2006)
Degree Days  
Heating Degree Days 3 10  
Month to date heating degree days 60 111  
Since 1 July heating degree days 80 181  
Cooling Degree Days 0 1  
Month to date cooling degree days 33 21  
Year to date cooling degree days 1513 1358  
Growing Degree Days 10 (Base 50)    
Moisture  
Dew Point 55 °F    
Average Humidity 73    
Maximum Humidity 100    
Minimum Humidity 46    
Precipitation  
Precipitation 0.34 in 0.07 in 1.07 in (2007)
Month to date precipitation 2.24 1.10  
Year to date precipitation 26.56 28.81  
Sea Level Pressure  
Sea Level Pressure 29.96 in    
Wind  
Wind Speed 13 mph (SSE)    
Max Wind Speed 26 mph    
Max Gust Speed 35 mph    
Visibility 9 miles    
Events Rain , Thunderstorm    
T = Trace of Precipitation, MM = Missing Value Source: NWS Daily Summary

Daily Weather History Graph

Daily Weather History Graph

Search for Another Location

Airport or City:

Trip Planner

Search our weather history database for the weather conditions in past years. The results will help you decide how hot, cold, wet, or windy it might be!

Date:

Astronomy

Oct. 14, 2013 Rise Set
Actual Time 7:35 AM CDT 6:48 PM CDT
Civil Twilight 7:08 AM CDT 7:15 PM CDT
Nautical Twilight 6:37 AM CDT 7:46 PM CDT
Astronomical Twilight 6:06 AM CDT 8:17 PM CDT
Moon 4:17 PM CDT (10/14) 2:55 AM CDT (10/14)
Length of Visible Light 12h 07m
Length of Day
11h 13m
Waxing Gibbous, 79% of the Moon is Illuminated
Oct 14
Waxing Gibbous
Oct 18
Full
Oct 26
Last Quarter
Nov 3
New
Nov 9
First Quarter

Hourly Weather History & Observations

Time (CDT) Temp. Dew Point Humidity Pressure Visibility Wind Dir Wind Speed Gust Speed Precip Events Conditions
12:52 AM 59.0 °F 39.9 °F 49% 30.23 in 10.0 mi East 6.9 mph - N/A   Overcast
1:52 AM 59.0 °F 39.9 °F 49% 30.22 in 10.0 mi ESE 5.8 mph - N/A   Overcast
2:52 AM 60.1 °F 41.0 °F 49% 30.20 in 10.0 mi East 8.1 mph - N/A   Overcast
3:52 AM 61.0 °F 39.9 °F 46% 30.16 in 10.0 mi ESE 11.5 mph - N/A   Overcast
4:52 AM 60.1 °F 39.9 °F 47% 30.14 in 10.0 mi ESE 8.1 mph - N/A   Overcast
5:52 AM 60.1 °F 39.9 °F 47% 30.14 in 10.0 mi SE 8.1 mph - N/A   Overcast
6:52 AM 59.0 °F 42.1 °F 53% 30.13 in 10.0 mi Variable 4.6 mph - N/A   Overcast
7:52 AM 59.0 °F 43.0 °F 55% 30.12 in 10.0 mi ESE 5.8 mph - N/A   Overcast
8:52 AM 57.0 °F 50.0 °F 77% 30.10 in 10.0 mi SE 9.2 mph - 0.01 in   Overcast
9:52 AM 57.9 °F 50.0 °F 75% 30.09 in 10.0 mi East 5.8 mph - 0.00 in Rain Light Rain
10:52 AM 62.1 °F 53.1 °F 72% 30.05 in 10.0 mi SSE 8.1 mph - 0.01 in   Overcast
11:52 AM 64.9 °F 52.0 °F 63% 30.00 in 10.0 mi SSE 19.6 mph 24.2 mph N/A   Overcast
12:52 PM 59.0 °F 57.0 °F 93% 29.99 in 10.0 mi SSE 13.8 mph 24.2 mph 0.01 in   Overcast
1:15 PM 60.8 °F 57.2 °F 88% 29.97 in 10.0 mi SSE 17.3 mph 23.0 mph N/A   Overcast
1:40 PM 62.6 °F 57.2 °F 82% 29.95 in 10.0 mi SSE 24.2 mph 33.4 mph N/A   Overcast
1:49 PM 62.6 °F 57.2 °F 82% 29.94 in 10.0 mi SSE 23.0 mph 29.9 mph N/A   Overcast
1:52 PM 61.0 °F 57.9 °F 90% 29.94 in 10.0 mi SSE 20.7 mph 29.9 mph N/A   Overcast
1:58 PM 60.8 °F 57.2 °F 88% 29.94 in 10.0 mi South 19.6 mph 29.9 mph N/A   Overcast
2:36 PM 62.6 °F 59.0 °F 88% 29.91 in 10.0 mi SSE 18.4 mph 27.6 mph 0.01 in   Overcast
2:52 PM 62.1 °F 59.0 °F 90% 29.89 in 10.0 mi South 21.9 mph 25.3 mph 0.01 in   Overcast
3:37 PM 60.8 °F 60.8 °F 100% 29.88 in 10.0 mi South 16.1 mph 26.5 mph 0.02 in   Overcast
3:52 PM 62.1 °F 60.1 °F 93% 29.86 in 10.0 mi South 16.1 mph 28.8 mph 0.02 in   Overcast
4:52 PM 62.1 °F 60.1 °F 93% 29.83 in 10.0 mi South 20.7 mph 31.1 mph N/A   Overcast
5:52 PM 63.0 °F 62.1 °F 97% 29.80 in 9.0 mi South 27.6 mph 33.4 mph N/A   Overcast
6:52 PM 63.0 °F 63.0 °F 100% 29.80 in 7.0 mi South 17.3 mph 26.5 mph N/A   Overcast
7:52 PM 64.0 °F 63.0 °F 96% 29.78 in 10.0 mi South 18.4 mph 26.5 mph N/A   Overcast
8:49 PM 64.4 °F 62.6 °F 94% 29.83 in 1.5 mi WSW 17.3 mph 25.3 mph 0.17 in Rain , Thunderstorm Heavy Thunderstorms and Rain
8:52 PM 63.0 °F 63.0 °F 100% 29.83 in 1.0 mi SW 18.4 mph 26.5 mph 0.24 in Rain , Thunderstorm Heavy Thunderstorms and Rain
9:01 PM 62.6 °F 62.6 °F 100% 29.82 in 2.0 mi SW 13.8 mph 21.9 mph 0.03 in Rain , Thunderstorm Heavy Thunderstorms and Rain
9:04 PM 62.6 °F 62.6 °F 100% 29.82 in 3.0 mi SSW 15.0 mph 21.9 mph 0.03 in Rain Rain
9:15 PM 62.6 °F 62.6 °F 100% 29.83 in 10.0 mi SW 13.8 mph - 0.04 in Rain , Thunderstorm Light Rain
9:30 PM 62.6 °F 62.6 °F 100% 29.83 in 10.0 mi SSW 9.2 mph - 0.04 in   Overcast
9:52 PM 62.1 °F 62.1 °F 100% 29.83 in 10.0 mi SW 3.5 mph - 0.04 in   Overcast
10:52 PM 62.1 °F 62.1 °F 100% 29.85 in 10.0 mi SW 8.1 mph - 0.00 in Rain Light Rain
11:52 PM 61.0 °F 60.1 °F 97% 29.86 in 10.0 mi WSW 6.9 mph - 0.00 in   Overcast